Location: Lixville
(37.5770°N, 89.9118°W)
Time: 22:46:33
(UTC+00:00)

ACS3 Solar Sail - Visible Passes

Search period start: 07 October 2024 00:00
Search period end: 17 October 2024 00:00
Orbit: 962 x 1035 km, 97.4° (Epoch: 07 October)

Date Brightness Start Highest point End Pass type
(mag) Time Alt. Az. Time Alt. Az. Time Alt. Az.
07 Oct 3.7 00:07:17 10° ENE 00:07:25 10° ENE 00:07:31 10° ENE visible
07 Oct 1.7 01:49:54 69° E 01:50:10 70° ENE 01:56:30 10° N visible
07 Oct 4.2 03:35:04 17° W 03:35:04 17° W 03:38:30 10° NW visible
08 Oct 3.1 00:36:56 18° E 00:38:33 19° ENE 00:42:50 10° NNE visible
08 Oct 2.1 02:22:06 66° W 02:22:06 66° W 02:28:11 10° NNW visible
09 Oct 2.4 01:09:07 33° E 01:09:52 34° ENE 01:15:29 10° N visible
09 Oct 3.2 02:54:17 35° W 02:54:17 35° W 02:59:26 10° NNW visible
10 Oct 1.8 01:41:17 62° ENE 01:41:20 62° ENE 01:47:34 10° N visible
10 Oct 4.0 03:26:26 19° W 03:26:26 19° W 03:29:59 10° NW visible
11 Oct 3.2 00:28:17 16° E 00:29:45 17° ENE 00:33:36 10° NNE visible
11 Oct 2.0 02:13:27 71° WNW 02:13:27 71° WNW 02:19:18 10° NNW visible
12 Oct 2.6 01:00:25 30° ENE 01:00:59 31° ENE 01:06:22 10° N visible
12 Oct 3.0 02:45:34 38° WNW 02:45:34 38° WNW 02:50:36 10° NNW visible
13 Oct 1.9 01:32:32 55° ENE 01:32:32 55° ENE 01:38:31 10° N visible
13 Oct 3.9 03:17:42 21° WNW 03:17:42 21° WNW 03:21:17 10° NW visible
14 Oct 3.3 00:19:30 14° ENE 00:20:49 15° ENE 00:24:10 10° NNE visible
14 Oct 2.0 02:04:39 71° NNW 02:04:39 71° NNW 02:10:15 10° NNW visible
15 Oct 2.7 00:51:36 27° ENE 00:51:59 27° ENE 00:57:07 10° NNE visible
15 Oct 2.9 02:36:44 41° WNW 02:36:44 41° WNW 02:41:36 10° NNW visible
16 Oct 2.1 01:23:41 48° ENE 01:23:41 48° ENE 01:29:18 10° N visible
16 Oct 3.8 03:08:49 23° WNW 03:08:49 23° WNW 03:12:25 10° NW visible
